Denver, CO

6:14 PM MDT on July 26, 2017 (GMT -0600)
Denver International

Weather History for KDEN - December, 2011

Change the Weather History Date:

Sunday, December 4, 2011

  Actual Average Record
Temperature  
Mean Temperature 18 °F 31 °F  
Max Temperature 27 °F 44 °F 72 °F (2007)
Min Temperature 9 °F 18 °F -13 °F (2013)
Degree Days  
Heating Degree Days 47 34  
Month to date heating degree days 189 134  
Since 1 July heating degree days 1441 1516  
Cooling Degree Days 0 0  
Month to date cooling degree days 0 0  
Year to date cooling degree days 964 769  
Moisture  
Dew Point 8 °F    
Average Humidity 63    
Maximum Humidity 80    
Minimum Humidity 46    
Precipitation  
Precipitation 0.02 in 0.02 in 2.12 in (1913)
Month to date precipitation 0.29 0.05  
Year to date precipitation 16.82 14.00  
Snow  
Snow 0.50 in - - ()
Month to date snowfall 9.2  
Since 1 July snowfall 22.2  
Snow Depth 3.00 in    
Sea Level Pressure  
Sea Level Pressure 30.27 in    
Wind  
Wind Speed 9 mph (North)    
Max Wind Speed 24 mph    
Max Gust Speed 26 mph    
Visibility 7 miles    
Events Fog , Snow    
T = Trace of Precipitation, MM = Missing Value Source: NWS Daily Summary

Daily Weather History Graph

Daily Weather History Graph

Search for Another Location

Airport or City:

Trip Planner

Search our weather history database for the weather conditions in past years. The results will help you decide how hot, cold, wet, or windy it might be!

Date:

Astronomy

Dec. 04, 2011 Rise Set
Actual Time 7:03 AM MST 4:33 PM MST
Civil Twilight 6:33 AM MST 5:03 PM MST
Nautical Twilight 5:59 AM MST 5:37 PM MST
Astronomical Twilight 5:27 AM MST 6:10 PM MST
Moon 1:05 PM MST (12/4) 1:31 AM MST (12/4)
Length of Visible Light 10h 30m
Length of Day
9h 30m
Waxing Gibbous, 72% of the Moon is Illuminated
Dec 4
Waxing Gibbous
Dec 10
Full
Dec 17
Last Quarter
Dec 24
New
Dec 31
First Quarter

Hourly Weather History & Observations

Time (MST) Temp. Windchill Dew Point Humidity Pressure Visibility Wind Dir Wind Speed Gust Speed Precip Events Conditions
12:53 AM 12.9 °F 1.6 °F 6.1 °F 74% 30.12 in 10.0 mi SSW 8.1 mph - N/A   Scattered Clouds
1:53 AM 14.0 °F 6.5 °F 7.0 °F 74% 30.12 in 10.0 mi SW 4.6 mph - N/A   Scattered Clouds
2:53 AM 10.0 °F 0.4 °F 3.9 °F 76% 30.14 in 10.0 mi SW 5.8 mph - N/A   Scattered Clouds
3:53 AM 12.9 °F 1.6 °F 6.1 °F 74% 30.13 in 10.0 mi SW 8.1 mph - N/A   Scattered Clouds
4:53 AM 14.0 °F 2.0 °F 7.0 °F 74% 30.15 in 10.0 mi SW 9.2 mph - N/A   Scattered Clouds
5:53 AM 16.0 °F 2.9 °F 7.0 °F 68% 30.15 in 10.0 mi SW 11.5 mph - N/A   Mostly Cloudy
6:53 AM 15.1 °F 6.4 °F 7.0 °F 70% 30.18 in 10.0 mi WSW 5.8 mph - N/A   Mostly Cloudy
7:53 AM 15.1 °F 7.7 °F 8.1 °F 74% 30.22 in 10.0 mi SW 4.6 mph - N/A   Mostly Cloudy
8:53 AM 18.0 °F 12.7 °F 9.0 °F 68% 30.23 in 10.0 mi WSW 3.5 mph - N/A   Mostly Cloudy
9:53 AM 19.9 °F 14.9 °F 10.9 °F 68% 30.27 in 10.0 mi WSW 3.5 mph - N/A   Mostly Cloudy
10:53 AM 21.0 °F 13.4 °F 10.9 °F 65% 30.25 in 10.0 mi WSW 5.8 mph - N/A   Mostly Cloudy
11:53 AM 25.0 °F - 10.9 °F 55% 30.22 in 10.0 mi Calm Calm - N/A   Mostly Cloudy
12:53 PM 26.1 °F - 9.0 °F 49% 30.21 in 10.0 mi Calm Calm - N/A   Mostly Cloudy
1:53 PM 23.0 °F 15.8 °F 10.0 °F 58% 30.21 in 10.0 mi NNE 5.8 mph - N/A   Mostly Cloudy
2:53 PM 19.9 °F 10.1 °F 9.0 °F 62% 30.27 in 10.0 mi NE 8.1 mph - N/A   Mostly Cloudy
3:53 PM 19.0 °F 7.5 °F 9.0 °F 65% 30.28 in 10.0 mi NNE 10.4 mph - N/A   Mostly Cloudy
4:53 PM 17.1 °F 6.6 °F 10.0 °F 74% 30.32 in 10.0 mi NE 8.1 mph - N/A   Mostly Cloudy
5:22 PM 19.4 °F 5.0 °F 10.4 °F 68% 30.16 in 10.0 mi NE 16.1 mph - N/A   Overcast
5:53 PM 18.0 °F 5.4 °F 10.0 °F 71% 30.34 in 10.0 mi NE 11.5 mph - N/A   Overcast
6:53 PM 17.6 °F 7.3 °F 10.4 °F 73% 30.22 in 10.0 mi NE 8.1 mph - N/A   Overcast
7:26 PM 17.6 °F 8.2 °F 10.4 °F 73% 30.24 in 3.0 mi North 6.9 mph - 0.00 in Snow Light Snow
7:32 PM 17.6 °F 7.3 °F 10.4 °F 73% 30.25 in 2.5 mi North 8.1 mph - 0.00 in Snow Light Snow
7:35 PM 17.6 °F 5.7 °F 10.4 °F 73% 30.25 in 1.5 mi North 10.4 mph - 0.00 in Snow Light Snow
7:47 PM 17.6 °F 4.3 °F 12.2 °F 79% 30.26 in 0.8 mi North 12.7 mph - 0.01 in Snow Light Snow
7:53 PM 17.1 °F 3.0 °F 12.9 °F 84% 30.43 in 0.5 mi North 13.8 mph - 0.01 in Fog , Snow Snow
8:04 PM 17.6 °F 2.2 °F 12.2 °F 79% 30.27 in 1.0 mi North 17.3 mph - 0.00 in Snow Light Snow
8:53 PM 15.1 °F -1.1 °F 10.0 °F 80% 30.46 in 1.0 mi North 17.3 mph - 0.01 in Snow Light Snow
9:40 PM 12.2 °F -6.3 °F 6.8 °F 79% 30.32 in 0.8 mi North 20.7 mph - 0.00 in Snow Light Snow
9:53 PM 12.0 °F -6.9 °F 7.0 °F 80% 30.49 in 1.0 mi North 21.9 mph - 0.00 in Snow Light Snow
10:05 PM 12.2 °F -6.3 °F 6.8 °F 79% 30.32 in 1.0 mi North 20.7 mph - 0.00 in Snow Light Snow
10:20 PM 12.2 °F -5.8 °F 5.0 °F 73% 30.32 in 1.0 mi North 19.6 mph - 0.00 in   Overcast
10:24 PM 12.2 °F -5.3 °F 5.0 °F 73% 30.33 in 9.0 mi North 18.4 mph - 0.00 in Snow Light Snow
10:26 PM 12.2 °F -4.8 °F 5.0 °F 73% 30.33 in 9.0 mi North 17.3 mph - 0.00 in Snow Light Snow
10:53 PM 10.4 °F -8.6 °F 3.2 °F 73% 30.34 in 10.0 mi North 20.7 mph - N/A   Overcast
11:53 PM 10.0 °F -4.5 °F 1.9 °F 70% 30.51 in 10.0 mi NNE 11.5 mph - N/A   Overcast